Погода в Малой Грибановке

Россия / Воронежская область     51°30′26″N   42°04′20″E
темп.,
°C
ветер,
м/с
пор.,
м/с
влажн.,
%
обл.,
%
осадки,
мм/ч
давл.,
гПа
погр.,
м
20 мая, пт
пт2000:00+10з41075100 0.1 1014190
03:00+9зсз368187 0.1 1012117
06:00+9ссз368830 0.1 1012177
09:00+13ссз576888 0.4 10131130
12:00+13с6761100 0.8 10131625
15:00+13ссз5854100 0.9 10132002
18:00+11ссз695788 0.0 1014750
21:00+6ссв387343 0.0 1015143
21 мая, сб
сб2100:00+4с337784 0.0 101552
03:00+3с227710 0.0 101510
06:00+5с1170100 0.0 101574
09:00+10вюв115185 0.0 1014864
12:00+12вюв2243100 0.0 10121647
15:00+13юв224399 0.0 10111841
18:00+13юв23548 0.0 10091066
21:00+7ююз2267100 0.0 100912
22 мая, вс
вс2200:00+7ююв2263100 0.0 100723
03:00+7юв2470100 0.0 1005112
06:00+7вюв4973100 0.1 1002330
09:00+6в61193100 2.3 999537
12:00+6в61193100 1.8 997559
15:00+7всв4694100 2.4 997389
18:00+6св5894100 0.3 997571
21:00+6ссв51094100 0.3 999586
23 мая, пн
пн2300:00+6с4995100 0.2 1000553
03:00+4ссз36965 0.3 1002134
06:00+5с48885 0.0 1004259
09:00+9с56625 0.0 10051285
12:00+10ссз4654100 0.1 10051504
15:00+11сз465557 0.1 10061656
18:00+11сз366690 0.1 1006520
21:00+8з226891 0.1 100731
24 мая, вт
вт2400:00+6зюз33745 0.0 100838
03:00+4з48835 0.0 1008131
06:00+6зсз48805 0.0 1009210
09:00+11зсз466081 0.0 1009754
12:00+14зсз5645100 0.0 10091940
15:00+14зсз684556 0.0 10092083
18:00+13сз58575 0.0 10111026
21:00+7зсз36695 0.0 101397